EZS98NZ LEMH-LSGG

Flight info

Callsign EZS98NZ
Flight time N/A
Altitude 34000
Route MEROS N853 LUMAS DCT MAXIR DCT LUSOL DCT BODRU/N0417F320 DCT OKTET/N0389F280 DCT IRMAR DCT KINES
Aircraft A320/M-SDE2E3FGHIJ1RWXYZ/LB1

Departure

Time 2026-04-08 09:03
Airport Menorca Airport (LEMH)

Arrival

Time N/A
Airport Geneva International Airport (LSGG)
Time Latitude Longitude Altitude Speed Heading
2026-04-08 08:22 39.86368 4.22387 295 ft 0 kts 98°
2026-04-08 08:56 39.86371 4.22368 296 ft 4 kts 97°
2026-04-08 08:56 39.86373 4.22333 295 ft 4 kts 86°
2026-04-08 08:56 39.86367 4.22302 299 ft 4 kts 41°
2026-04-08 08:57 39.86359 4.22295 299 ft 0 kts
2026-04-08 08:58 39.86366 4.22297 299 ft 4 kts
2026-04-08 08:59 39.86422 4.22308 299 ft 12 kts
2026-04-08 08:59 39.86519 4.22308 299 ft 14 kts 316°
2026-04-08 08:59 39.86552 4.22201 296 ft 12 kts 302°
2026-04-08 08:59 39.86621 4.22179 295 ft 10 kts
2026-04-08 09:00 39.86719 4.22199 295 ft 17 kts
2026-04-08 09:00 39.86832 4.22222 300 ft 16 kts
2026-04-08 09:00 39.86930 4.22242 298 ft 12 kts
2026-04-08 09:00 39.87000 4.22255 301 ft 9 kts
2026-04-08 09:01 39.87086 4.22273 307 ft 16 kts
2026-04-08 09:01 39.87377 4.22333 311 ft 21 kts
2026-04-08 09:01 39.87454 4.22258 312 ft 15 kts 262°
2026-04-08 09:02 39.87399 4.22149 312 ft 15 kts 226°
2026-04-08 09:02 39.87299 4.22079 312 ft 21 kts 190°
2026-04-08 09:02 39.86951 4.22008 309 ft 86 kts 188°
2026-04-08 09:02 39.86143 4.21843 300 ft 145 kts 189°
2026-04-08 09:03 39.85428 4.21701 459 ft 162 kts 188°
2026-04-08 09:03 39.83969 4.21393 1501 ft 158 kts 189°
2026-04-08 09:03 39.83236 4.21235 1902 ft 167 kts 189°
2026-04-08 09:03 39.82013 4.20974 2341 ft 189 kts 189°
2026-04-08 09:04 39.80635 4.20679 2704 ft 213 kts 189°
2026-04-08 09:04 39.79089 4.20350 3146 ft 237 kts 189°
2026-04-08 09:04 39.77387 4.19982 3733 ft 255 kts 190°
2026-04-08 09:04 39.75600 4.19905 4565 ft 262 kts 168°
2026-04-08 09:05 39.73953 4.20920 5449 ft 268 kts 140°
2026-04-08 09:05 39.72842 4.22863 6356 ft 273 kts 113°
2026-04-08 09:05 39.72539 4.25304 7221 ft 280 kts 86°
2026-04-08 09:05 39.73127 4.27727 8058 ft 287 kts 59°
2026-04-08 09:06 39.74510 4.29615 8898 ft 294 kts 33°
2026-04-08 09:06 39.76422 4.30568 9737 ft 299 kts
2026-04-08 09:06 39.78513 4.30790 10449 ft 308 kts
2026-04-08 09:06 39.80731 4.30966 10762 ft 330 kts
2026-04-08 09:07 39.83057 4.31144 11376 ft 338 kts
2026-04-08 09:07 39.85423 4.31329 12135 ft 343 kts
2026-04-08 09:07 39.87815 4.31520 12923 ft 346 kts
2026-04-08 09:07 39.90232 4.31715 13709 ft 349 kts
2026-04-08 09:08 39.92670 4.31913 14413 ft 353 kts
2026-04-08 09:08 39.95128 4.32116 15090 ft 355 kts
2026-04-08 09:08 39.97602 4.32321 15773 ft 358 kts
2026-04-08 09:08 40.00094 4.32529 16450 ft 360 kts
2026-04-08 09:09 40.02599 4.32737 17155 ft 362 kts
2026-04-08 09:09 40.05118 4.32943 17853 ft 364 kts
2026-04-08 09:09 40.07651 4.33149 18530 ft 366 kts
2026-04-08 09:09 40.10198 4.33358 19098 ft 368 kts
2026-04-08 09:10 40.12768 4.33569 19660 ft 371 kts
2026-04-08 09:10 40.15354 4.33785 20220 ft 374 kts
2026-04-08 09:10 40.17954 4.34095 20752 ft 377 kts
2026-04-08 09:10 40.20561 4.34560 21334 ft 379 kts
2026-04-08 09:11 40.23173 4.35082 21876 ft 381 kts
2026-04-08 09:11 40.25804 4.35638 22385 ft 385 kts
2026-04-08 09:11 40.28458 4.36213 22895 ft 388 kts
2026-04-08 09:11 40.31131 4.36791 23394 ft 391 kts
2026-04-08 09:12 40.33828 4.37367 23865 ft 394 kts
2026-04-08 09:12 40.36545 4.37938 24265 ft 397 kts
2026-04-08 09:12 40.39285 4.38503 24675 ft 400 kts
2026-04-08 09:12 40.42039 4.39061 25114 ft 401 kts
2026-04-08 09:13 40.44803 4.39620 25541 ft 403 kts
2026-04-08 09:13 40.47583 4.40189 25942 ft 405 kts
2026-04-08 09:13 40.50375 4.40764 26350 ft 408 kts
2026-04-08 09:13 40.53186 4.41345 26742 ft 410 kts
2026-04-08 09:14 40.56012 4.41931 27127 ft 412 kts
2026-04-08 09:14 40.58854 4.42522 27508 ft 415 kts
2026-04-08 09:14 40.61713 4.43117 27885 ft 417 kts
2026-04-08 09:14 40.64588 4.43717 28261 ft 419 kts
2026-04-08 09:15 40.67479 4.44323 28635 ft 422 kts
2026-04-08 09:15 40.70386 4.44929 28990 ft 424 kts
2026-04-08 09:15 40.73310 4.45537 29343 ft 427 kts
2026-04-08 09:15 40.76250 4.46146 29696 ft 429 kts
2026-04-08 09:16 40.79207 4.46758 30046 ft 431 kts
2026-04-08 09:16 40.82181 4.47372 30374 ft 434 kts
2026-04-08 09:16 40.85170 4.47991 30690 ft 435 kts
2026-04-08 09:16 40.88160 4.48615 31001 ft 436 kts
2026-04-08 09:17 40.91162 4.49244 31287 ft 438 kts
2026-04-08 09:17 40.94178 4.49876 31566 ft 439 kts
2026-04-08 09:17 40.97155 4.50504 31927 ft 438 kts
2026-04-08 09:17 41.00203 4.51150 32319 ft 437 kts
2026-04-08 09:18 41.03166 4.51777 32691 ft 437 kts
2026-04-08 09:18 41.06163 4.52408 33072 ft 436 kts
2026-04-08 09:18 41.09154 4.53036 33463 ft 435 kts
2026-04-08 09:18 41.12136 4.53661 33850 ft 434 kts
2026-04-08 09:19 41.15116 4.54285 34144 ft 434 kts
2026-04-08 09:19 41.20796 4.56617 34199 ft 428 kts 22°
2026-04-08 09:20 41.26260 4.59773 34201 ft 428 kts 23°
2026-04-08 09:20 41.31708 4.62961 34201 ft 428 kts 23°
2026-04-08 09:21 41.37152 4.66152 34201 ft 427 kts 23°
2026-04-08 09:21 41.42603 4.69334 34201 ft 428 kts 23°
2026-04-08 09:22 41.48051 4.72522 34201 ft 428 kts 24°
2026-04-08 09:22 41.53498 4.75718 34203 ft 427 kts 24°
2026-04-08 09:23 41.58939 4.78922 34203 ft 427 kts 24°
2026-04-08 09:23 41.64376 4.82128 34202 ft 427 kts 24°
2026-04-08 09:24 41.69811 4.85341 34200 ft 427 kts 25°
2026-04-08 09:24 41.75248 4.88555 34195 ft 427 kts 25°
2026-04-08 09:25 41.80688 4.91769 34195 ft 427 kts 25°
2026-04-08 09:25 41.86131 4.94992 34198 ft 428 kts 25°
2026-04-08 09:26 41.91568 4.98232 34203 ft 428 kts 25°
2026-04-08 09:26 41.96968 5.01449 34204 ft 428 kts 25°
2026-04-08 09:27 42.02408 5.04686 34205 ft 428 kts 25°
2026-04-08 09:27 42.07842 5.07944 34206 ft 427 kts 25°
2026-04-08 09:28 42.13275 5.11205 34201 ft 428 kts 26°
2026-04-08 09:28 42.18713 5.14460 34205 ft 428 kts 26°
2026-04-08 09:29 42.24150 5.17721 34205 ft 428 kts 26°
2026-04-08 09:29 42.29580 5.20995 34201 ft 428 kts 26°
2026-04-08 09:30 42.35012 5.24279 34201 ft 428 kts 26°
2026-04-08 09:30 42.40442 5.27572 34204 ft 428 kts 26°
2026-04-08 09:31 42.45877 5.30858 34205 ft 428 kts 25°
2026-04-08 09:31 42.51308 5.34157 34203 ft 428 kts 26°
2026-04-08 09:32 42.56738 5.37461 34206 ft 428 kts 26°
2026-04-08 09:32 42.62161 5.40774 34211 ft 427 kts 26°
2026-04-08 09:33 42.67587 5.44088 34214 ft 427 kts 26°
2026-04-08 09:33 42.73015 5.47397 34212 ft 427 kts 26°
2026-04-08 09:34 42.78440 5.50717 34217 ft 428 kts 26°
2026-04-08 09:34 42.83861 5.54054 34218 ft 427 kts 26°
2026-04-08 09:35 42.89282 5.57389 34213 ft 427 kts 26°
2026-04-08 09:35 42.94702 5.60724 34215 ft 427 kts 26°
2026-04-08 09:36 43.00121 5.64074 34215 ft 427 kts 26°
2026-04-08 09:36 43.05536 5.67423 34212 ft 427 kts 26°
2026-04-08 09:37 43.10953 5.70783 34212 ft 428 kts 26°
2026-04-08 09:37 43.16372 5.74155 34220 ft 428 kts 26°
2026-04-08 09:38 43.21788 5.77521 34233 ft 427 kts 26°
2026-04-08 09:38 43.27204 5.80890 34219 ft 427 kts 26°
2026-04-08 09:39 43.32609 5.84267 34214 ft 427 kts 26°
2026-04-08 09:39 43.38011 5.87661 34205 ft 427 kts 26°
2026-04-08 09:40 43.43413 5.91059 34205 ft 427 kts 26°
2026-04-08 09:40 43.48822 5.94456 34207 ft 427 kts 26°
2026-04-08 09:41 43.54238 5.97860 34209 ft 428 kts 25°
2026-04-08 09:41 43.59659 6.01275 34212 ft 429 kts 26°
2026-04-08 09:42 43.65084 6.04704 34222 ft 429 kts 26°
2026-04-08 09:42 43.70507 6.08143 34212 ft 429 kts 25°
2026-04-08 09:43 43.75928 6.11590 34225 ft 429 kts 26°
2026-04-08 09:43 43.81342 6.15036 34232 ft 428 kts 26°
2026-04-08 09:44 43.86720 6.18455 34225 ft 428 kts 25°
2026-04-08 09:44 43.92129 6.21911 34230 ft 428 kts 25°
2026-04-08 09:45 43.97539 6.25381 34229 ft 428 kts 25°
2026-04-08 09:45 44.02948 6.28854 34227 ft 428 kts 25°
2026-04-08 09:46 44.08361 6.32327 34227 ft 429 kts 25°
2026-04-08 09:46 44.13773 6.35811 34224 ft 428 kts 25°
2026-04-08 09:47 44.19183 6.39294 34224 ft 428 kts 25°
2026-04-08 09:47 44.24588 6.42781 34217 ft 428 kts 25°
2026-04-08 09:48 44.29990 6.46291 34222 ft 428 kts 25°
2026-04-08 09:48 44.32697 6.48056 33985 ft 430 kts 25°
2026-04-08 09:48 44.35400 6.49818 33576 ft 428 kts 25°
2026-04-08 09:48 44.38100 6.51573 33170 ft 428 kts 25°
2026-04-08 09:49 44.39931 6.52761 32894 ft 429 kts 25°
2026-04-08 09:49 44.43515 6.55084 32387 ft 429 kts 25°
2026-04-08 09:49 44.45312 6.56252 32129 ft 430 kts 25°
2026-04-08 09:49 44.48065 6.58048 31746 ft 431 kts 25°
2026-04-08 09:50 44.50783 6.59826 31372 ft 432 kts 25°
2026-04-08 09:50 44.53506 6.61611 31004 ft 432 kts 25°
2026-04-08 09:50 44.56194 6.63376 30644 ft 432 kts 25°
2026-04-08 09:50 44.58916 6.65156 30272 ft 430 kts 25°
2026-04-08 09:51 44.61619 6.66925 29851 ft 428 kts 25°
2026-04-08 09:51 44.64307 6.68691 29438 ft 425 kts 25°
2026-04-08 09:51 44.66969 6.70444 29060 ft 421 kts 26°
2026-04-08 09:51 44.69620 6.72191 28786 ft 420 kts 26°
2026-04-08 09:52 44.72257 6.73929 28509 ft 418 kts 26°
2026-04-08 09:52 44.74880 6.75657 28276 ft 415 kts 26°
2026-04-08 09:52 44.77514 6.77309 28222 ft 414 kts 21°
2026-04-08 09:52 44.80269 6.78430 27858 ft 411 kts 11°
2026-04-08 09:53 44.83102 6.78847 27264 ft 409 kts
2026-04-08 09:53 44.85935 6.78684 26695 ft 406 kts 358°
2026-04-08 09:53 44.88743 6.78474 26133 ft 402 kts 359°
2026-04-08 09:53 44.91529 6.78281 25602 ft 400 kts 359°
2026-04-08 09:54 44.94299 6.78098 25122 ft 397 kts 359°
2026-04-08 09:54 44.97051 6.77919 24647 ft 394 kts 359°
2026-04-08 09:54 44.99781 6.77738 24180 ft 391 kts 359°
2026-04-08 09:54 45.02493 6.77556 23699 ft 388 kts 359°
2026-04-08 09:55 45.05179 6.77376 23153 ft 385 kts 359°
2026-04-08 09:55 45.07849 6.77198 22627 ft 382 kts 359°
2026-04-08 09:55 45.10496 6.77023 22221 ft 380 kts 359°
2026-04-08 09:55 45.13124 6.76853 21839 ft 377 kts 359°
2026-04-08 09:56 45.15740 6.76681 21452 ft 375 kts 359°
2026-04-08 09:56 45.18341 6.76507 21072 ft 373 kts 359°
2026-04-08 09:56 45.20926 6.76335 20694 ft 370 kts 359°
2026-04-08 09:56 45.23489 6.76163 20321 ft 368 kts 359°
2026-04-08 09:57 45.26037 6.75992 19956 ft 366 kts 359°
2026-04-08 09:57 45.28570 6.75824 19594 ft 363 kts 359°
2026-04-08 09:57 45.31070 6.75302 19236 ft 364 kts 347°
2026-04-08 09:57 45.33444 6.74050 18882 ft 365 kts 335°
2026-04-08 09:58 45.35588 6.72110 18523 ft 367 kts 323°
2026-04-08 09:58 45.37468 6.69649 18130 ft 367 kts 319°
2026-04-08 09:58 45.39301 6.67142 17728 ft 365 kts 319°
2026-04-08 09:58 45.41130 6.64646 17339 ft 363 kts 319°
2026-04-08 09:59 45.42952 6.62162 16946 ft 362 kts 319°
2026-04-08 09:59 45.44765 6.59693 16557 ft 360 kts 319°
2026-04-08 09:59 45.46575 6.57228 16179 ft 359 kts 318°
2026-04-08 09:59 45.48403 6.54733 15797 ft 358 kts 318°
2026-04-08 10:00 45.50171 6.52318 15435 ft 356 kts 318°
2026-04-08 10:00 45.51952 6.49878 15067 ft 355 kts 318°
2026-04-08 10:00 45.53726 6.47442 14698 ft 354 kts 318°
2026-04-08 10:00 45.55523 6.44971 14345 ft 353 kts 317°
2026-04-08 10:01 45.59038 6.40133 13582 ft 349 kts 317°
2026-04-08 10:01 45.60822 6.37825 13203 ft 344 kts 321°
2026-04-08 10:01 45.62657 6.35643 12687 ft 343 kts 322°
2026-04-08 10:02 45.64508 6.33513 12256 ft 341 kts 322°
2026-04-08 10:02 45.66358 6.31411 11836 ft 339 kts 322°
2026-04-08 10:02 45.68198 6.29321 11408 ft 337 kts 322°
2026-04-08 10:02 45.69996 6.27265 11004 ft 335 kts 322°
2026-04-08 10:03 45.71814 6.25171 10793 ft 326 kts 322°
2026-04-08 10:03 45.73548 6.23171 10676 ft 315 kts 324°
2026-04-08 10:03 45.75291 6.21422 10558 ft 305 kts 328°
2026-04-08 10:03 45.77099 6.19912 10372 ft 298 kts 333°
2026-04-08 10:04 45.78910 6.18504 10081 ft 295 kts 333°
2026-04-08 10:04 45.80716 6.17125 9756 ft 293 kts 333°
2026-04-08 10:04 45.82524 6.15733 9404 ft 290 kts 333°
2026-04-08 10:04 45.84271 6.14379 9066 ft 288 kts 333°
2026-04-08 10:05 45.86030 6.13012 8736 ft 287 kts 333°
2026-04-08 10:05 45.87799 6.11635 8369 ft 285 kts 333°
2026-04-08 10:05 45.89512 6.10302 8012 ft 283 kts 333°
2026-04-08 10:05 45.91235 6.08962 7654 ft 281 kts 333°
2026-04-08 10:06 45.92946 6.07625 7301 ft 279 kts 333°
2026-04-08 10:06 45.94646 6.06296 6966 ft 277 kts 333°
2026-04-08 10:06 45.96329 6.04980 6566 ft 275 kts 333°
2026-04-08 10:06 45.98002 6.03673 6210 ft 272 kts 333°
2026-04-08 10:07 45.99638 6.02401 6005 ft 262 kts 333°
2026-04-08 10:07 46.01217 6.01176 5783 ft 254 kts 333°
2026-04-08 10:07 46.02752 5.99973 5534 ft 248 kts 333°
2026-04-08 10:07 46.04242 5.98779 5290 ft 242 kts 333°
2026-04-08 10:08 46.05697 5.97615 5055 ft 236 kts 333°
2026-04-08 10:08 46.07110 5.96488 4858 ft 229 kts 333°
2026-04-08 10:08 46.08487 5.95386 4688 ft 224 kts 333°
2026-04-08 10:08 46.09858 5.94423 4557 ft 215 kts 347°
2026-04-08 10:09 46.11335 5.94255 4381 ft 214 kts
2026-04-08 10:09 46.12723 5.94931 4184 ft 210 kts 31°
2026-04-08 10:09 46.13808 5.96269 3958 ft 203 kts 45°
2026-04-08 10:09 46.14787 5.97701 3706 ft 199 kts 45°
2026-04-08 10:10 46.15750 5.99108 3423 ft 192 kts 45°
2026-04-08 10:10 46.16646 6.00416 3185 ft 177 kts 45°
2026-04-08 10:10 46.17483 6.01639 2961 ft 164 kts 44°
2026-04-08 10:10 46.18236 6.02740 2759 ft 147 kts 45°
2026-04-08 10:11 46.18938 6.03765 2542 ft 141 kts 45°
2026-04-08 10:11 46.19620 6.04763 2365 ft 138 kts 46°
2026-04-08 10:11 46.20292 6.05746 2167 ft 137 kts 46°
2026-04-08 10:11 46.20955 6.06716 1980 ft 135 kts 45°